SES-21

Last updated on Wed Oct 29 2025 00:02:50 GMT+0000 (Coordinated Universal Time)

1 53961U 22123B 25300.58984685 .00000080 00000+0 00000+0 0 9993 2 53961 0.0331 67.1598 0001072 148.9375 261.4709 1.00270238 4888
UTC large
Height (km)
Speed (km/s)
/
Latitude / Longitude
Inclination (degrees)
Orbital Period (minutes)
Azimuth
Elevation
Range (km)
Doppler Factor

Next 0 passes for location: London (51.5072 / 0.1276)

Sorry there are no passes over London.